Home > Weather > Springfield > Past weeks

Flag for USA Weather for the Past 2 Weeks in Springfield, Missouri, USA

Now
58 °F

Clear.


Feels Like: 58 °F
Forecast: 48 / 67 °F
Wind: No wind

Location: Springfield Regional Airport

Current Time: Apr 30, 2016 at 11:42:09 PM

Latest Report: Apr 30, 2016 at 10:52 PM


Visibility: 10 mi

Pressure: 29.85 "Hg

Humidity: 75%

Dew Point: 50 °F

Location of SpringfieldLocation

Historic Weather in Springfield — Graph

°F

Springfield Temperature Yesterday

Maximum temperature yesterday: 64 °F (at 2:52 PM)
Minimum temperature yesterday: 52 °F (at 5:52 AM)
Average temperature yesterday: 58 °F

High & Low Weather Summary for the Past Weeks

 TemperatureHumidityPressure
High83 °F (Apr 26, 2:52 PM)93% (Apr 19, 5:52 AM)30.20 "Hg (Apr 19, 5:52 AM)
Low46 °F (Apr 23, 5:03 AM)32% (Apr 23, 4:52 PM)29.55 "Hg (Apr 27, 6:52 AM)
Average64 °F67%29.92 "Hg
* Reported Apr 15 8:52 PM — Apr 30 8:52 PM, Springfield, Weather by CustomWeather, © 2016

Note: Actual official high and low records may vary slightly from our data, if they occured in-between our weather recording intervals... More about our weather records

Advertising

Springfield Weather History for the Previous 24 Hours

Scroll right to see more
 ConditionsComfort  
Time TempWeatherWind HumidityBarometerVisibility
8:52 PM
Sat, Apr 30
63 °FSunny.7 mph68%29.80 "Hg10 mi
7:52 PM66 °FPassing clouds.8 mph63%29.77 "Hg10 mi
6:52 PM69 °FSunny.13 mph59%29.74 "Hg10 mi
5:52 PM72 °FPartly sunny.10 mph59%29.72 "Hg10 mi
4:52 PM73 °FBroken clouds.13 mph62%29.72 "Hg10 mi
3:52 PM73 °FPartly sunny.18 mph62%29.72 "Hg10 mi
2:52 PM73 °FBroken clouds.16 mph64%29.71 "Hg10 mi
1:52 PM73 °FPartly sunny.16 mph64%29.69 "Hg10 mi
1:04 PM71 °FCloudy.15 mph66%29.72 "Hg10 mi
12:52 PM71 °FMostly cloudy.15 mph68%29.69 "Hg10 mi
11:52 AM69 °FMostly cloudy.14 mph73%29.70 "Hg10 mi
11:02 AM68 °FMostly cloudy.14 mph76%29.72 "Hg10 mi
10:52 AM69 °FMore clouds than sun.20 mph73%29.69 "Hg10 mi
10:01 AM66 °FMostly cloudy.12 mph81%29.71 "Hg10 mi
8:52 AM64 °FOvercast.13 mph87%29.69 "Hg10 mi
7:52 AM63 °FLow clouds.12 mph90%29.66 "Hg10 mi
6:52 AM63 °FMostly cloudy.12 mph90%29.66 "Hg10 mi
5:52 AM63 °FOvercast.9 mph87%29.65 "Hg10 mi
5:04 AM62 °FPassing clouds.7 mph86%29.65 "Hg10 mi
3:52 AM62 °FPassing clouds.10 mph90%29.61 "Hg10 mi
2:52 AM62 °FMostly cloudy.13 mph90%29.66 "Hg10 mi
2:01 AM61 °FLight rain. Mostly cloudy.14 mph93%29.73 "Hg9 mi
1:03 AM61 °FRain. Fog.9 mph90%29.76 "Hg6 mi
12:52 AM61 °FRain. Fog.12 mph90%29.74 "Hg5 mi
11:52 PM
Fri, Apr 29
60 °FRain. Fog.6 mph93%29.78 "Hg6 mi
Weather by CustomWeather, © 2016

See weather overviewHow to use our weather pages